Starlink 3336

operational
NORAD ID: 50818 Int'l Des: 2022-001 Owner: SPXS Country: US Constellation: starlink
LEOCIRCULAR

About Starlink 3336

Description loading...

Live Position

Loading 3D Globe...

Upcoming Passes

Altitude History

Altitude vs Time

uPlot chart will show altitude changes over time

Two-Line Element Set

1 50818U 22001R 26066.31072442 .00000593 00000-0 55338-4 0 9995
2 50818 53.2171 179.7999 0001256 103.6577 256.4555 15.08839605230043
Epoch: Mar 7, 2026 • Age: 15 hours

Current Status

Altitude 555.9 km
Velocity 7.58 km/s
Sub-Earth Point -45.20°S, 97.56°E
Launch Date Jan 6, 2022
Age 4.1 years
Type internet

Technical Details

Classification Payload
Mass 297.00 kg
Dry Mass 275.00 kg
Total Mass 297.00 kg
Length 0.20 m
Diameter 2.80 m
Span 9.00 m
Shape Box + pan
Manufacturer SPXS
Bus Type Starlink
Phase Status In Orbit
Owner/State SPXS/US

Large Constellations

Loading constellations...